User: anonymous   Login
Location: Desert Center
(33.7130°N, 115.4010°W)
Time: 20:07:11
(UTC-07:00)
Language:

USA 215 - Orbit

View from above orbital plane
View from above orbital plane
View from above satellite
View from above satellite

Ground track
Ground track

The orbit data is extracted from the following two-line orbital elements,

1 37162U 10046A   15086.82307159 0.00000000  00000-0  00000-0 0    08
2 37162 123.0021 174.3214 0004283 143.9649 216.0351 13.41466519    03
Epoch (UTC): 27 March 2015 19:45:13
Eccentricity: 0.0004283
inclination: 123.0021°
perigee height: 1100 km
apogee height: 1107 km
right ascension of ascending node: 174.3214°
argument of perigee: 143.9649°
revolutions per day: 13.41466519
mean anomaly at epoch: 216.0351°
orbit number at epoch: 0

The dashed part of the orbit path shows where the satellite is in the earth's shadow,  

DLR